Fremont, MI

7:25 PM EDT on September 22, 2019 (GMT -0400)
Fremont

Weather History for KFFX - July, 2019

Change the Weather History Date:

Thursday, July 18, 2019

  Actual Average (WUND) Record (WUND)
Temperature  
Mean Temperature 78 °F -  
Max Temperature 87 °F - - (-1)
Min Temperature 68 °F - - (-1)
Cooling Degree Days 12    
Growing Degree Days 28 (Base 50)    
Moisture  
Dew Point 67 °F    
Average Humidity 76    
Maximum Humidity 96    
Minimum Humidity 42    
Precipitation  
Precipitation 0.00 in - - ()
Sea Level Pressure  
Sea Level Pressure 29.84 in    
Wind  
Wind Speed 6 mph (South)    
Max Wind Speed 26 mph    
Max Gust Speed 40 mph    
Visibility 10 miles    
Events Rain    
Averages and records for this station are not official NWS values.
T = Trace of Precipitation, MM = Missing Value Source: NWS Daily Summary

Daily Weather History Graph

Daily Weather History Graph

Search for Another Location

Airport or City:

Astronomy

Jul. 18, 2019 Rise Set
Actual Time 6:19 AM EDT 9:20 PM EDT
Civil Twilight 5:45 AM EDT 9:54 PM EDT
Nautical Twilight 5:01 AM EDT 10:38 PM EDT
Astronomical Twilight 4:09 AM EDT 11:29 PM EDT
Moon 10:43 PM EDT (7/18) 7:49 AM EDT (7/18)
Length of Visible Light 16h 09m
Length of Day
15h 00m
Full, 97% of the Moon is Illuminated
Jul 18
Full
Jul 24
Last Quarter
Jul 31
New
Aug 7
First Quarter
Aug 15
Full

Hourly Weather History & Observations

Time (EDT) Temp. Heat Index Dew Point Humidity Pressure Visibility Wind Dir Wind Speed Gust Speed Precip Events Conditions
12:16 AM 72.7 °F - 69.8 °F 91% 29.92 in 10.0 mi Calm Calm - N/A   Clear
12:35 AM 73.0 °F - 70.7 °F 92% 29.92 in 10.0 mi Calm Calm - N/A   Clear
12:36 AM 73.0 °F - 70.5 °F 92% 29.92 in 10.0 mi Calm Calm - N/A   Clear
12:55 AM 74.1 °F - 71.4 °F 91% 29.92 in 10.0 mi East 3.5 mph - N/A   Clear
12:56 AM 74.3 °F - 71.4 °F 91% 29.92 in 10.0 mi Calm Calm - N/A   Clear
1:19 AM 74.8 °F - 68.7 °F 81% 29.92 in 10.0 mi ESE 5.8 mph - N/A   Clear
1:37 AM 74.5 °F - 66.4 °F 76% 29.92 in 10.0 mi ESE 9.2 mph - N/A   Clear
1:55 AM 74.3 °F - 64.9 °F 72% 29.92 in 10.0 mi ESE 5.8 mph - N/A   Clear
2:15 AM 73.6 °F - 64.4 °F 73% 29.92 in 10.0 mi ESE 5.8 mph - N/A   Clear
2:16 AM 73.6 °F - 64.4 °F 73% 29.92 in 10.0 mi ESE 5.8 mph - N/A   Clear
2:35 AM 73.0 °F - 63.7 °F 72% 29.91 in 10.0 mi ESE 5.8 mph - N/A   Clear
2:40 AM 72.9 °F - 63.5 °F 72% 29.91 in 10.0 mi ESE 5.8 mph - N/A   Clear
2:58 AM 72.3 °F - 63.1 °F 73% 29.90 in 10.0 mi ESE 4.6 mph - N/A   Clear
3:16 AM 71.8 °F - 62.8 °F 73% 29.89 in 10.0 mi ESE 6.9 mph - N/A   Clear
3:35 AM 71.2 °F - 62.6 °F 74% 29.88 in 10.0 mi ESE 5.8 mph - N/A   Clear
3:55 AM 70.9 °F - 62.6 °F 75% 29.88 in 10.0 mi ESE 6.9 mph - N/A   Clear
3:56 AM 70.9 °F - 62.6 °F 75% 29.88 in 10.0 mi ESE 5.8 mph - N/A   Clear
4:18 AM 70.7 °F - 62.6 °F 75% 29.88 in 10.0 mi ESE 6.9 mph - N/A   Clear
4:37 AM 70.2 °F - 62.8 °F 77% 29.88 in 10.0 mi ESE 5.8 mph - N/A   Clear
4:55 AM 70.2 °F - 62.6 °F 77% 29.88 in 10.0 mi ESE 5.8 mph - N/A   Clear
5:15 AM 69.8 °F - 63.0 °F 79% 29.87 in 10.0 mi ESE 6.9 mph - N/A   Clear
5:35 AM 69.4 °F - 63.1 °F 80% 29.88 in 10.0 mi ESE 4.6 mph - N/A   Scattered Clouds
5:40 AM 69.4 °F - 63.5 °F 81% 29.88 in 10.0 mi ESE 3.5 mph - N/A   Scattered Clouds
5:58 AM 69.3 °F - 63.9 °F 83% 29.88 in 10.0 mi ESE 4.6 mph - N/A   Scattered Clouds
6:16 AM 68.9 °F - 64.8 °F 87% 29.88 in 10.0 mi ESE 4.6 mph - N/A   Scattered Clouds
6:35 AM 69.1 °F - 65.5 °F 88% 29.87 in 10.0 mi ESE 5.8 mph - N/A   Clear
6:55 AM 70.0 °F - 66.2 °F 88% 29.89 in 10.0 mi SE 3.5 mph - N/A   Clear
7:19 AM 70.7 °F - 66.9 °F 88% 29.88 in 10.0 mi SE 4.6 mph - N/A   Clear
7:37 AM 71.1 °F - 67.5 °F 88% 29.88 in 10.0 mi SE 4.6 mph - N/A   Clear
7:55 AM 71.1 °F - 68.2 °F 91% 29.87 in 10.0 mi SE 3.5 mph - N/A   Clear
8:15 AM 71.8 °F - 68.9 °F 91% 29.87 in 10.0 mi SSE 3.5 mph - N/A   Clear
8:35 AM 72.9 °F - 69.8 °F 90% 29.88 in 10.0 mi South 3.5 mph - N/A   Mostly Cloudy
8:58 AM 73.4 °F - 70.2 °F 90% 29.89 in 10.0 mi South 3.5 mph - N/A   Overcast
9:16 AM 74.3 °F - 70.3 °F 87% 29.89 in 10.0 mi Calm Calm - N/A   Overcast
9:35 AM 74.8 °F - 70.7 °F 87% 29.90 in 10.0 mi SSW 5.8 mph - N/A   Mostly Cloudy
9:36 AM 75.0 °F - 70.7 °F 86% 29.90 in 10.0 mi SSW 4.6 mph - N/A   Mostly Cloudy
9:55 AM 75.6 °F - 70.5 °F 84% 29.90 in 10.0 mi SW 5.8 mph - N/A   Scattered Clouds
9:56 AM 75.6 °F - 70.5 °F 84% 29.90 in 10.0 mi SW 6.9 mph - N/A   Scattered Clouds
10:19 AM 75.7 °F - 70.9 °F 85% 29.91 in 10.0 mi SW 6.9 mph - N/A   Overcast
10:37 AM 75.4 °F - 72.0 °F 89% 29.91 in 10.0 mi WSW 5.8 mph - N/A Rain Rain
10:55 AM 74.7 °F - 72.5 °F 93% 29.92 in 10.0 mi WSW 8.1 mph - N/A Rain Light Rain
10:56 AM 74.7 °F - 72.5 °F 93% 29.92 in 7.0 mi WSW 8.1 mph - N/A Rain Light Rain
11:15 AM 73.6 °F - 72.0 °F 95% 29.90 in 7.0 mi WSW 8.1 mph 16.1 mph N/A Rain Light Rain
11:16 AM 73.6 °F - 72.0 °F 95% 29.91 in 7.0 mi WSW 6.9 mph - N/A Rain Light Rain
11:35 AM 73.0 °F - 71.8 °F 96% 29.89 in 7.0 mi South 5.8 mph - N/A Rain Light Rain
11:39 AM 72.9 °F - 71.8 °F 96% 29.88 in 7.0 mi South 6.9 mph - N/A Rain Light Rain
11:58 AM 72.5 °F - 71.4 °F 96% 29.79 in 10.0 mi SSE 15.0 mph 20.7 mph N/A Rain Light Rain
12:15 PM 73.0 °F - 66.7 °F 81% 29.72 in 10.0 mi SSE 26.5 mph 40.3 mph N/A   Scattered Clouds
12:16 PM 73.0 °F - 66.4 °F 80% 29.72 in 10.0 mi South 26.5 mph 40.3 mph N/A   Scattered Clouds
12:39 PM 75.9 °F - 61.9 °F 62% 29.79 in 10.0 mi SW 25.3 mph 33.4 mph N/A   Scattered Clouds
12:57 PM 76.1 °F - 62.2 °F 62% 29.79 in 10.0 mi SSW 19.6 mph 28.8 mph N/A   Clear
1:15 PM 76.1 °F - 62.2 °F 62% 29.78 in 10.0 mi South 10.4 mph 23.0 mph N/A   Clear
1:16 PM 76.1 °F - 62.2 °F 62% 29.78 in 10.0 mi South 11.5 mph 23.0 mph N/A   Clear
1:35 PM 75.9 °F - 62.4 °F 63% 29.73 in 10.0 mi South 10.4 mph 21.9 mph N/A   Clear
1:36 PM 76.1 °F - 62.2 °F 62% 29.71 in 10.0 mi South 13.8 mph 21.9 mph N/A   Clear
1:55 PM 76.1 °F - 63.3 °F 64% 29.77 in 10.0 mi West 6.9 mph - N/A   Clear
2:00 PM 76.1 °F - 63.3 °F 64% 29.76 in 10.0 mi SSW 3.5 mph - N/A   Clear
2:18 PM 77.0 °F - 63.7 °F 63% 29.75 in 10.0 mi South 4.6 mph - N/A   Clear
2:36 PM 79.5 °F - 64.2 °F 59% 29.77 in 10.0 mi SW 8.1 mph - N/A   Clear
2:55 PM 81.7 °F 83.2 °F 64.0 °F 55% 29.77 in 10.0 mi WSW 6.9 mph - N/A   Clear
3:15 PM 82.6 °F 83.8 °F 63.5 °F 52% 29.78 in 10.0 mi SSW 11.5 mph 18.4 mph N/A   Clear
3:39 PM 82.6 °F 83.6 °F 63.0 °F 51% 29.78 in 10.0 mi SW 10.4 mph - N/A   Clear
3:57 PM 83.5 °F 84.5 °F 63.1 °F 50% 29.76 in 10.0 mi SW 5.8 mph - N/A   Clear
4:15 PM 84.4 °F 85.2 °F 62.8 °F 48% 29.75 in 10.0 mi WSW 8.1 mph - N/A   Clear
4:16 PM 84.6 °F 85.4 °F 62.8 °F 48% 29.75 in 10.0 mi SW 8.1 mph - N/A   Clear
4:35 PM 86.5 °F 87.6 °F 63.3 °F 46% 29.76 in 10.0 mi SW 9.2 mph - N/A   Clear
4:55 PM 87.1 °F 87.2 °F 61.7 °F 42% 29.77 in 7.0 mi WSW 13.8 mph 19.6 mph N/A   Clear
5:18 PM 86.0 °F 86.3 °F 61.7 °F 44% 29.77 in 10.0 mi WSW 12.7 mph 19.6 mph N/A   Clear
5:36 PM 84.2 °F 85.0 °F 62.4 °F 48% 29.78 in 10.0 mi West 15.0 mph 24.2 mph N/A   Clear
5:55 PM 83.3 °F 84.4 °F 63.7 °F 51% 29.79 in 10.0 mi WSW 17.3 mph 23.0 mph N/A   Clear
5:56 PM 83.1 °F 84.4 °F 63.7 °F 52% 29.78 in 10.0 mi WSW 17.3 mph 23.0 mph N/A   Clear
6:15 PM 82.8 °F 84.5 °F 65.3 °F 55% 29.79 in 10.0 mi WSW 17.3 mph 20.7 mph N/A   Clear
6:16 PM 82.8 °F 84.5 °F 65.3 °F 55% 29.79 in 10.0 mi WSW 17.3 mph 20.7 mph N/A   Clear
6:39 PM 81.0 °F 83.0 °F 66.0 °F 60% 29.79 in 10.0 mi SW 13.8 mph 21.9 mph N/A   Clear
6:57 PM 80.6 °F 82.8 °F 66.4 °F 62% 29.78 in 10.0 mi SW 17.3 mph 21.9 mph N/A   Scattered Clouds
7:15 PM 79.5 °F - 66.9 °F 65% 29.78 in 10.0 mi SW 17.3 mph 24.2 mph N/A   Scattered Clouds
7:16 PM 79.3 °F - 66.9 °F 66% 29.78 in 10.0 mi SW 15.0 mph 24.2 mph N/A   Scattered Clouds
7:35 PM 78.8 °F - 67.6 °F 68% 29.79 in 10.0 mi SW 10.4 mph 21.9 mph N/A   Scattered Clouds
7:55 PM 78.3 °F - 68.0 °F 71% 29.79 in 10.0 mi SW 10.4 mph 16.1 mph N/A   Clear
8:18 PM 78.3 °F - 68.5 °F 72% 29.79 in 10.0 mi SW 6.9 mph - N/A   Clear
8:36 PM 77.9 °F - 68.9 °F 74% 29.79 in 10.0 mi SW 6.9 mph 10.4 mph N/A   Clear
8:55 PM 77.0 °F - 68.9 °F 76% 29.79 in 10.0 mi SSW 6.9 mph - N/A   Scattered Clouds
9:15 PM 76.1 °F - 69.1 °F 79% 29.79 in 10.0 mi SSW 5.8 mph - N/A   Scattered Clouds
9:39 PM 74.8 °F - 70.3 °F 86% 29.79 in 10.0 mi SSW 4.6 mph - N/A   Clear
9:57 PM 74.5 °F - 70.9 °F 88% 29.79 in 10.0 mi SSW 3.5 mph - N/A   Clear
10:15 PM 74.3 °F - 71.2 °F 90% 29.80 in 10.0 mi SSW 4.6 mph - N/A   Clear
10:35 PM 73.0 °F - 71.1 °F 93% 29.80 in 10.0 mi South 3.5 mph - N/A   Clear
10:55 PM 73.6 °F - 71.6 °F 93% 29.80 in 10.0 mi SSW 5.8 mph - N/A   Clear
11:00 PM 73.8 °F - 71.6 °F 93% 29.80 in 10.0 mi South 4.6 mph - N/A   Clear
11:18 PM 73.0 °F - 71.6 °F 95% 29.80 in 10.0 mi SSW 3.5 mph - N/A   Clear
11:36 PM 73.4 °F - 71.8 °F 95% 29.80 in 10.0 mi SSW 3.5 mph - N/A   Clear
11:55 PM 73.4 °F - 71.6 °F 94% 29.80 in 10.0 mi Calm Calm - N/A   Scattered Clouds